Time,TemperatureF,DewpointF,PressureIn,WindDirection,WindDirectionDegrees,WindSpeedMPH,WindSpeedGustMPH,Humidity,HourlyPrecipIn,Conditions,Clouds,dailyrainin,SoftwareType,DateUTC
2013-08-12 00:01:00,69.4,61.5,30.05,WNW,298,1.0,2.0,76,0.00,,,0.00,Wunderground v.1.15,2013-08-12 04:01:00,
2013-08-12 00:04:00,69.5,61.6,30.04,WNW,298,2.0,4.0,76,0.00,,,0.00,Wunderground v.1.15,2013-08-12 04:04:00,
2013-08-12 00:09:00,69.6,61.7,30.05,WNW,298,2.0,4.0,76,0.00,,,0.00,Wunderground v.1.15,2013-08-12 04:09:00,
2013-08-12 00:14:00,69.7,61.4,30.04,WNW,298,2.0,3.0,75,0.00,,,0.00,Wunderground v.1.15,2013-08-12 04:14:00,
2013-08-12 00:19:00,69.7,61.4,30.04,WNW,298,2.0,2.0,75,0.00,,,0.00,Wunderground v.1.15,2013-08-12 04:19:00,
2013-08-12 00:24:00,69.8,61.5,30.04,WNW,298,2.0,3.0,75,0.00,,,0.00,Wunderground v.1.15,2013-08-12 04:24:00,
2013-08-12 00:29:00,69.7,61.4,30.04,WNW,298,2.0,2.0,75,0.00,,,0.00,Wunderground v.1.15,2013-08-12 04:29:00,
2013-08-12 00:34:00,69.7,61.8,30.04,WNW,298,1.0,3.0,76,0.00,,,0.00,Wunderground v.1.15,2013-08-12 04:34:00,
2013-08-12 00:39:00,69.6,61.7,30.04,WNW,299,2.0,3.0,76,0.00,,,0.00,Wunderground v.1.15,2013-08-12 04:39:00,
2013-08-12 00:44:00,69.5,61.6,30.04,WNW,298,2.0,3.0,76,0.00,,,0.00,Wunderground v.1.15,2013-08-12 04:44:00,
2013-08-12 00:49:00,69.4,61.9,30.04,WNW,299,2.0,2.0,77,0.00,,,0.00,Wunderground v.1.15,2013-08-12 04:49:00,
2013-08-12 00:54:00,69.3,61.8,30.04,WNW,298,3.0,3.0,77,0.00,,,0.00,Wunderground v.1.15,2013-08-12 04:54:00,
2013-08-12 00:59:00,69.1,61.9,30.04,WNW,298,2.0,2.0,78,0.00,,,0.00,Wunderground v.1.15,2013-08-12 04:59:00,
2013-08-12 01:04:00,69.0,62.2,30.04,WNW,298,1.0,3.0,79,0.00,,,0.00,Wunderground v.1.15,2013-08-12 05:04:00,
2013-08-12 01:09:00,68.9,62.1,30.04,WNW,298,1.0,2.0,79,0.00,,,0.00,Wunderground v.1.15,2013-08-12 05:09:00,
2013-08-12 01:14:00,68.8,62.4,30.04,WNW,298,1.0,3.0,80,0.00,,,0.00,Wunderground v.1.15,2013-08-12 05:14:00,
2013-08-12 01:19:00,68.7,62.3,30.04,WNW,298,1.0,2.0,80,0.00,,,0.00,Wunderground v.1.15,2013-08-12 05:19:00,
2013-08-12 01:24:00,68.7,62.3,30.04,WNW,298,1.0,3.0,80,0.00,,,0.00,Wunderground v.1.15,2013-08-12 05:24:00,
2013-08-12 01:29:00,68.7,62.6,30.04,WNW,299,2.0,2.0,81,0.00,,,0.00,Wunderground v.1.15,2013-08-12 05:29:00,
2013-08-12 01:34:00,68.6,62.5,30.04,WNW,299,2.0,3.0,81,0.00,,,0.00,Wunderground v.1.15,2013-08-12 05:34:00,
2013-08-12 01:39:00,68.8,62.7,30.04,WNW,298,1.0,2.0,81,0.00,,,0.00,Wunderground v.1.15,2013-08-12 05:39:00,
2013-08-12 01:44:00,68.8,62.7,30.04,WNW,298,2.0,3.0,81,0.00,,,0.00,Wunderground v.1.15,2013-08-12 05:44:00,
2013-08-12 01:49:00,68.8,62.7,30.04,WNW,298,2.0,2.0,81,0.00,,,0.00,Wunderground v.1.15,2013-08-12 05:49:00,
2013-08-12 01:54:00,68.8,63.1,30.03,WNW,298,1.0,3.0,82,0.00,,,0.00,Wunderground v.1.15,2013-08-12 05:54:00,
2013-08-12 01:59:00,68.8,63.1,30.03,WNW,299,1.0,1.0,82,0.00,,,0.00,Wunderground v.1.15,2013-08-12 05:59:00,
2013-08-12 02:04:00,68.8,63.1,30.03,WNW,298,1.0,3.0,82,0.00,,,0.00,Wunderground v.1.15,2013-08-12 06:04:00,
2013-08-12 02:09:00,68.8,63.1,30.03,WNW,299,1.0,1.0,82,0.00,,,0.00,Wunderground v.1.15,2013-08-12 06:09:00,
2013-08-12 02:14:00,68.9,63.2,30.03,WNW,298,1.0,3.0,82,0.00,,,0.00,Wunderground v.1.15,2013-08-12 06:14:00,
2013-08-12 02:19:00,69.4,63.7,30.03,WNW,298,0.0,1.0,82,0.00,,,0.00,Wunderground v.1.15,2013-08-12 06:19:00,
2013-08-12 02:24:00,70.1,64.0,30.03,East,86,0.0,3.0,81,0.00,,,0.00,Wunderground v.1.15,2013-08-12 06:24:00,
2013-08-12 02:29:00,70.7,64.6,30.02,South,171,0.0,0.0,81,0.00,,,0.00,Wunderground v.1.15,2013-08-12 06:29:00,
2013-08-12 02:34:00,71.1,64.3,30.03,WNW,302,0.0,3.0,79,0.00,,,0.00,Wunderground v.1.15,2013-08-12 06:34:00,
2013-08-12 02:39:00,71.3,64.4,30.02,SSW,209,0.0,0.0,79,0.00,,,0.00,Wunderground v.1.15,2013-08-12 06:39:00,
2013-08-12 02:44:00,71.3,64.4,30.02,NE,46,1.0,2.0,79,0.00,,,0.00,Wunderground v.1.15,2013-08-12 06:44:00,
2013-08-12 02:49:00,71.5,64.3,30.02,WSW,245,0.0,1.0,78,0.00,,,0.00,Wunderground v.1.15,2013-08-12 06:49:00,
2013-08-12 02:54:00,71.5,64.6,30.02,NW,323,0.0,3.0,79,0.00,,,0.00,Wunderground v.1.15,2013-08-12 06:54:00,
2013-08-12 02:59:00,71.5,64.6,30.02,NNE,13,0.0,0.0,79,0.00,,,0.00,Wunderground v.1.15,2013-08-12 06:59:00,
2013-08-12 03:04:00,71.3,64.4,30.02,WSW,244,0.0,1.0,79,0.00,,,0.00,Wunderground v.1.15,2013-08-12 07:04:00,
2013-08-12 03:09:00,71.3,64.4,30.01,WNW,285,0.0,0.0,79,0.00,,,0.00,Wunderground v.1.15,2013-08-12 07:09:00,
2013-08-12 03:14:00,71.2,64.4,30.01,West,265,0.0,3.0,79,0.00,,,0.00,Wunderground v.1.15,2013-08-12 07:14:00,
2013-08-12 03:19:00,71.2,64.4,30.01,NW,306,0.0,2.0,79,0.00,,,0.00,Wunderground v.1.15,2013-08-12 07:19:00,
2013-08-12 03:24:00,71.0,64.5,30.01,WSW,241,0.0,3.0,80,0.00,,,0.00,Wunderground v.1.15,2013-08-12 07:24:00,
2013-08-12 03:29:00,70.8,64.3,30.01,SW,230,0.0,1.0,80,0.00,,,0.00,Wunderground v.1.15,2013-08-12 07:29:00,
2013-08-12 03:35:00,70.6,64.5,30.01,SW,234,0.0,2.0,81,0.00,,,0.00,Wunderground v.1.15,2013-08-12 07:35:00,
2013-08-12 03:40:00,70.4,64.3,30.01,SW,234,0.0,1.0,81,0.00,,,0.00,Wunderground v.1.15,2013-08-12 07:40:00,
2013-08-12 03:45:00,70.3,64.5,30.01,WNW,284,1.0,2.0,82,0.00,,,0.00,Wunderground v.1.15,2013-08-12 07:45:00,
2013-08-12 03:50:00,70.5,64.7,30.01,WSW,250,0.0,1.0,82,0.00,,,0.00,Wunderground v.1.15,2013-08-12 07:50:00,
2013-08-12 03:55:00,70.5,64.7,30.01,WSW,250,0.0,3.0,82,0.00,,,0.00,Wunderground v.1.15,2013-08-12 07:55:00,
2013-08-12 04:00:00,70.5,65.1,30.01,WSW,244,0.0,0.0,83,0.00,,,0.00,Wunderground v.1.15,2013-08-12 08:00:00,
2013-08-12 04:05:00,70.5,65.1,30.01,SW,229,0.0,2.0,83,0.00,,,0.00,Wunderground v.1.15,2013-08-12 08:05:00,
2013-08-12 04:10:00,70.5,65.1,30.01,West,273,3.0,3.0,83,0.00,,,0.00,Wunderground v.1.15,2013-08-12 08:10:00,
2013-08-12 04:15:00,70.5,65.1,30.01,SW,231,0.0,3.0,83,0.00,,,0.00,Wunderground v.1.15,2013-08-12 08:15:00,
2013-08-12 04:20:00,70.4,65.0,30.01,North,355,1.0,2.0,83,0.00,,,0.00,Wunderground v.1.15,2013-08-12 08:20:00,
2013-08-12 04:25:00,70.3,65.2,30.01,North,360,0.0,2.0,84,0.00,,,0.00,Wunderground v.1.15,2013-08-12 08:25:00,
2013-08-12 04:30:00,70.3,65.2,30.01,NNE,32,0.0,3.0,84,0.00,,,0.00,Wunderground v.1.15,2013-08-12 08:30:00,
2013-08-12 04:35:00,70.3,65.2,30.01,NE,51,0.0,3.0,84,0.00,,,0.00,Wunderground v.1.15,2013-08-12 08:35:00,
2013-08-12 04:40:00,70.3,65.2,30.01,WSW,242,1.0,2.0,84,0.00,,,0.00,Wunderground v.1.15,2013-08-12 08:40:00,
2013-08-12 04:45:00,70.3,65.2,30.01,ESE,109,0.0,2.0,84,0.00,,,0.00,Wunderground v.1.15,2013-08-12 08:45:00,
2013-08-12 04:50:00,70.1,65.4,30.00,NNE,20,2.0,3.0,85,0.00,,,0.00,Wunderground v.1.15,2013-08-12 08:50:00,
2013-08-12 04:55:00,70.0,64.9,30.00,NNW,339,1.0,3.0,84,0.00,,,0.00,Wunderground v.1.15,2013-08-12 08:55:00,
2013-08-12 05:00:00,70.1,65.0,30.00,WNW,300,0.0,4.0,84,0.00,,,0.00,Wunderground v.1.15,2013-08-12 09:00:00,
2013-08-12 05:05:00,70.0,64.9,30.00,ENE,69,0.0,4.0,84,0.00,,,0.00,Wunderground v.1.15,2013-08-12 09:05:00,
2013-08-12 05:10:00,69.9,64.5,30.00,WSW,242,0.0,4.0,83,0.00,,,0.00,Wunderground v.1.15,2013-08-12 09:10:00,
2013-08-12 05:15:00,70.0,64.6,30.00,WSW,242,1.0,5.0,83,0.00,,,0.00,Wunderground v.1.15,2013-08-12 09:15:00,
2013-08-12 05:20:00,70.0,64.6,30.00,WNW,296,0.0,3.0,83,0.00,,,0.00,Wunderground v.1.15,2013-08-12 09:20:00,
2013-08-12 05:25:00,70.2,64.8,30.00,SW,229,1.0,4.0,83,0.00,,,0.00,Wunderground v.1.15,2013-08-12 09:25:00,
2013-08-12 05:30:00,70.2,64.8,30.00,West,261,1.0,2.0,83,0.00,,,0.00,Wunderground v.1.15,2013-08-12 09:30:00,
2013-08-12 05:35:00,70.2,64.4,30.00,West,263,0.0,4.0,82,0.00,,,0.00,Wunderground v.1.15,2013-08-12 09:35:00,
2013-08-12 05:40:00,70.3,64.5,30.00,NNW,331,1.0,1.0,82,0.00,,,0.00,Wunderground v.1.15,2013-08-12 09:40:00,
2013-08-12 05:45:00,70.3,64.5,30.00,West,277,0.0,2.0,82,0.00,,,0.00,Wunderground v.1.15,2013-08-12 09:45:00,
2013-08-12 05:50:00,70.2,64.8,30.00,West,269,0.0,3.0,83,0.00,,,0.00,Wunderground v.1.15,2013-08-12 09:50:00,
2013-08-12 05:55:00,70.1,65.0,30.00,East,93,1.0,3.0,84,0.00,,,0.00,Wunderground v.1.15,2013-08-12 09:55:00,
2013-08-12 06:00:00,70.0,64.9,30.00,ENE,63,0.0,1.0,84,0.00,,,0.00,Wunderground v.1.15,2013-08-12 10:00:00,
2013-08-12 06:05:00,69.9,64.8,30.00,West,271,0.0,2.0,84,0.00,,,0.00,Wunderground v.1.15,2013-08-12 10:05:00,
2013-08-12 06:10:00,70.0,64.9,30.00,SSW,204,0.0,1.0,84,0.00,,,0.00,Wunderground v.1.15,2013-08-12 10:10:00,
2013-08-12 06:15:00,70.1,65.0,30.00,ESE,119,0.0,2.0,84,0.00,,,0.00,Wunderground v.1.15,2013-08-12 10:15:00,
2013-08-12 06:20:00,70.3,64.9,29.99,North,351,1.0,1.0,83,0.00,,,0.00,Wunderground v.1.15,2013-08-12 10:20:00,
2013-08-12 06:25:00,70.3,65.2,29.99,East,81,1.0,3.0,84,0.00,,,0.00,Wunderground v.1.15,2013-08-12 10:25:00,
2013-08-12 06:30:00,70.3,65.2,29.99,East,97,1.0,2.0,84,0.00,,,0.00,Wunderground v.1.15,2013-08-12 10:30:00,
2013-08-12 06:35:00,70.1,65.0,29.99,ENE,74,2.0,3.0,84,0.00,,,0.00,Wunderground v.1.15,2013-08-12 10:35:00,
2013-08-12 06:40:00,70.1,65.4,29.99,WNW,288,0.0,1.0,85,0.00,,,0.00,Wunderground v.1.15,2013-08-12 10:40:00,
2013-08-12 06:45:00,70.1,65.4,29.99,ENE,71,2.0,5.0,85,0.00,,,0.00,Wunderground v.1.15,2013-08-12 10:45:00,
2013-08-12 06:50:00,70.1,65.4,30.00,NE,34,0.0,2.0,85,0.00,,,0.00,Wunderground v.1.15,2013-08-12 10:50:00,
2013-08-12 06:55:00,70.0,65.3,30.00,NE,37,0.0,2.0,85,0.00,,,0.00,Wunderground v.1.15,2013-08-12 10:55:00,
2013-08-12 07:00:00,70.0,65.6,30.00,SW,233,3.0,7.0,86,0.00,,,0.00,Wunderground v.1.15,2013-08-12 11:00:00,
2013-08-12 07:05:00,69.9,65.5,30.00,SW,227,3.0,7.0,86,0.00,,,0.00,Wunderground v.1.15,2013-08-12 11:05:00,
2013-08-12 07:10:00,69.8,65.4,30.00,West,275,0.0,3.0,86,0.00,,,0.00,Wunderground v.1.15,2013-08-12 11:10:00,
2013-08-12 07:15:00,69.7,65.7,30.00,West,264,3.0,3.0,87,0.00,,,0.00,Wunderground v.1.15,2013-08-12 11:15:00,
2013-08-12 07:20:00,69.4,65.7,30.00,SW,236,2.0,3.0,88,0.00,,,0.00,Wunderground v.1.15,2013-08-12 11:20:00,
2013-08-12 07:25:00,69.2,65.5,30.00,WSW,257,0.0,3.0,88,0.00,,,0.00,Wunderground v.1.15,2013-08-12 11:25:00,
2013-08-12 07:30:00,68.7,65.6,30.00,WSW,256,0.0,1.0,90,0.29,,,0.02,Wunderground v.1.15,2013-08-12 11:30:00,
2013-08-12 07:35:00,68.1,65.7,30.00,WSW,256,0.0,1.0,92,0.09,,,0.02,Wunderground v.1.15,2013-08-12 11:35:00,
2013-08-12 07:40:00,67.8,65.7,29.99,WSW,256,0.0,0.0,93,0.05,,,0.02,Wunderground v.1.15,2013-08-12 11:40:00,
2013-08-12 07:45:00,67.7,65.6,29.99,WSW,256,0.0,0.0,93,0.04,,,0.02,Wunderground v.1.15,2013-08-12 11:45:00,
2013-08-12 07:50:00,67.7,65.6,29.99,WSW,256,0.0,1.0,93,0.00,,,0.02,Wunderground v.1.15,2013-08-12 11:50:00,
2013-08-12 07:55:00,67.8,65.7,29.99,WSW,256,0.0,1.0,93,0.00,,,0.02,Wunderground v.1.15,2013-08-12 11:55:00,
2013-08-12 08:00:00,67.7,65.6,29.99,WSW,256,0.0,0.0,93,0.00,,,0.02,Wunderground v.1.15,2013-08-12 12:00:00,
2013-08-12 08:05:00,67.7,65.6,30.00,WSW,256,0.0,0.0,93,0.00,,,0.02,Wunderground v.1.15,2013-08-12 12:05:00,
2013-08-12 08:10:00,67.6,65.8,29.99,WSW,256,0.0,1.0,94,0.00,,,0.03,Wunderground v.1.15,2013-08-12 12:10:00,
2013-08-12 08:15:00,67.5,65.7,29.99,South,170,0.0,3.0,94,0.00,,,0.03,Wunderground v.1.15,2013-08-12 12:15:00,
2013-08-12 08:20:00,67.4,65.6,29.99,South,170,0.0,0.0,94,0.00,,,0.03,Wunderground v.1.15,2013-08-12 12:20:00,
2013-08-12 08:25:00,67.4,65.6,29.99,South,173,0.0,1.0,94,0.00,,,0.03,Wunderground v.1.15,2013-08-12 12:25:00,
2013-08-12 08:30:00,67.4,65.6,29.99,South,173,0.0,0.0,94,0.00,,,0.03,Wunderground v.1.15,2013-08-12 12:30:00,
2013-08-12 08:35:00,67.7,65.9,29.99,South,173,0.0,1.0,94,0.00,,,0.03,Wunderground v.1.15,2013-08-12 12:35:00,
2013-08-12 08:40:00,67.8,66.0,29.99,South,173,0.0,0.0,94,0.00,,,0.03,Wunderground v.1.15,2013-08-12 12:40:00,
2013-08-12 08:45:00,68.0,66.2,29.99,South,173,0.0,1.0,94,0.00,,,0.03,Wunderground v.1.15,2013-08-12 12:45:00,
2013-08-12 08:50:00,68.5,66.7,29.99,South,173,0.0,0.0,94,0.00,,,0.03,Wunderground v.1.15,2013-08-12 12:50:00,
2013-08-12 08:55:00,68.7,66.6,29.99,WSW,240,0.0,2.0,93,0.00,,,0.03,Wunderground v.1.15,2013-08-12 12:55:00,
2013-08-12 09:00:00,68.9,67.1,29.99,WSW,240,0.0,0.0,94,0.00,,,0.03,Wunderground v.1.15,2013-08-12 13:00:00,
2013-08-12 09:05:00,69.0,67.2,29.99,WSW,240,0.0,1.0,94,0.00,,,0.03,Wunderground v.1.15,2013-08-12 13:05:00,
2013-08-12 09:10:00,69.1,67.0,29.98,WSW,240,0.0,0.0,93,0.00,,,0.03,Wunderground v.1.15,2013-08-12 13:10:00,
2013-08-12 09:15:00,69.2,67.1,29.98,WSW,240,0.0,0.0,93,0.00,,,0.03,Wunderground v.1.15,2013-08-12 13:15:00,
2013-08-12 09:20:00,69.2,66.8,29.98,WSW,240,0.0,0.0,92,0.00,,,0.03,Wunderground v.1.15,2013-08-12 13:20:00,
2013-08-12 09:25:00,69.2,66.8,29.98,WSW,240,0.0,1.0,92,0.00,,,0.03,Wunderground v.1.15,2013-08-12 13:25:00,
2013-08-12 09:30:00,69.1,67.0,29.98,WSW,240,0.0,0.0,93,0.00,,,0.03,Wunderground v.1.15,2013-08-12 13:30:00,
2013-08-12 09:35:00,69.1,67.0,29.98,WSW,240,0.0,1.0,93,0.00,,,0.03,Wunderground v.1.15,2013-08-12 13:35:00,
2013-08-12 09:40:00,69.0,66.6,29.98,WSW,238,0.0,0.0,92,0.00,,,0.03,Wunderground v.1.15,2013-08-12 13:40:00,
2013-08-12 09:46:00,69.2,66.8,29.97,WSW,238,0.0,1.0,92,0.00,,,0.03,Wunderground v.1.15,2013-08-12 13:46:00,
2013-08-12 09:51:00,69.3,66.9,29.97,WSW,238,1.0,1.0,92,0.00,,,0.03,Wunderground v.1.15,2013-08-12 13:51:00,
2013-08-12 09:56:00,69.7,67.0,29.97,WSW,238,0.0,2.0,91,0.00,,,0.03,Wunderground v.1.15,2013-08-12 13:56:00,
2013-08-12 10:01:00,69.9,67.2,29.97,WSW,238,0.0,0.0,91,0.00,,,0.03,Wunderground v.1.15,2013-08-12 14:01:00,
2013-08-12 10:06:00,69.9,66.8,29.97,WSW,238,0.0,1.0,90,0.00,,,0.03,Wunderground v.1.15,2013-08-12 14:06:00,
2013-08-12 10:11:00,70.0,67.3,29.97,WSW,238,0.0,1.0,91,0.00,,,0.03,Wunderground v.1.15,2013-08-12 14:11:00,
2013-08-12 10:16:00,70.1,67.7,29.97,WSW,246,0.0,2.0,92,0.00,,,0.03,Wunderground v.1.15,2013-08-12 14:16:00,
2013-08-12 10:21:00,70.1,67.3,29.97,WSW,246,0.0,1.0,91,0.00,,,0.03,Wunderground v.1.15,2013-08-12 14:21:00,
2013-08-12 10:26:00,70.1,67.0,29.97,WSW,246,0.0,1.0,90,0.00,,,0.03,Wunderground v.1.15,2013-08-12 14:26:00,
2013-08-12 10:31:00,70.0,66.9,29.97,WSW,246,0.0,1.0,90,0.00,,,0.03,Wunderground v.1.15,2013-08-12 14:31:00,
2013-08-12 10:36:00,70.0,66.9,29.97,WSW,252,0.0,1.0,90,0.00,,,0.03,Wunderground v.1.15,2013-08-12 14:36:00,
2013-08-12 10:41:00,70.5,67.7,29.97,WSW,252,0.0,0.0,91,0.00,,,0.03,Wunderground v.1.15,2013-08-12 14:41:00,
2013-08-12 10:46:00,71.0,68.2,29.97,WSW,252,0.0,1.0,91,0.00,,,0.03,Wunderground v.1.15,2013-08-12 14:46:00,
2013-08-12 10:51:00,71.2,67.8,29.97,WSW,252,0.0,0.0,89,0.00,,,0.03,Wunderground v.1.15,2013-08-12 14:51:00,
2013-08-12 10:56:00,71.5,67.8,29.97,NW,314,0.0,3.0,88,0.00,,,0.03,Wunderground v.1.15,2013-08-12 14:56:00,
2013-08-12 11:01:00,71.9,68.5,29.97,NNW,335,0.0,1.0,89,0.00,,,0.03,Wunderground v.1.15,2013-08-12 15:01:00,
2013-08-12 11:06:00,72.3,68.2,29.97,NNW,337,0.0,1.0,87,0.00,,,0.03,Wunderground v.1.15,2013-08-12 15:06:00,
2013-08-12 11:11:00,72.5,69.1,29.97,NNE,30,0.0,2.0,89,0.00,,,0.03,Wunderground v.1.15,2013-08-12 15:11:00,
2013-08-12 11:16:00,72.2,67.8,29.97,WSW,258,0.0,2.0,86,0.00,,,0.03,Wunderground v.1.15,2013-08-12 15:16:00,
2013-08-12 11:21:00,72.0,67.6,29.97,WSW,246,0.0,2.0,86,0.00,,,0.03,Wunderground v.1.15,2013-08-12 15:21:00,
2013-08-12 11:26:00,72.3,67.9,29.97,ENE,69,0.0,3.0,86,0.00,,,0.03,Wunderground v.1.15,2013-08-12 15:26:00,
2013-08-12 11:31:00,72.5,68.1,29.97,West,272,0.0,2.0,86,0.00,,,0.03,Wunderground v.1.15,2013-08-12 15:31:00,
2013-08-12 11:36:00,72.8,67.3,29.97,SSW,202,0.0,3.0,83,0.00,,,0.03,Wunderground v.1.15,2013-08-12 15:36:00,
2013-08-12 11:41:00,73.0,68.2,29.97,East,88,0.0,2.0,85,0.00,,,0.03,Wunderground v.1.15,2013-08-12 15:41:00,
2013-08-12 11:46:00,72.6,66.4,29.97,SW,235,0.0,6.0,81,0.00,,,0.03,Wunderground v.1.15,2013-08-12 15:46:00,
2013-08-12 11:51:00,72.7,67.2,29.97,West,275,0.0,4.0,83,0.00,,,0.03,Wunderground v.1.15,2013-08-12 15:51:00,
2013-08-12 11:56:00,72.6,67.8,29.97,NNE,28,2.0,4.0,85,0.00,,,0.03,Wunderground v.1.15,2013-08-12 15:56:00,
2013-08-12 12:01:00,72.5,66.7,29.97,NNE,28,0.0,3.0,82,0.00,,,0.03,Wunderground v.1.15,2013-08-12 16:01:00,
2013-08-12 12:06:00,72.8,68.0,29.97,ENE,67,0.0,3.0,85,0.00,,,0.03,Wunderground v.1.15,2013-08-12 16:06:00,
2013-08-12 12:11:00,72.7,66.9,29.97,West,265,2.0,3.0,82,0.00,,,0.03,Wunderground v.1.15,2013-08-12 16:11:00,
2013-08-12 12:16:00,72.8,67.7,29.97,West,264,0.0,3.0,84,0.00,,,0.03,Wunderground v.1.15,2013-08-12 16:16:00,
2013-08-12 12:21:00,73.1,68.0,29.97,SW,233,0.0,3.0,84,0.00,,,0.03,Wunderground v.1.15,2013-08-12 16:21:00,
2013-08-12 12:26:00,73.4,67.2,29.97,WSW,238,0.0,3.0,81,0.00,,,0.03,Wunderground v.1.15,2013-08-12 16:26:00,
2013-08-12 12:31:00,73.4,66.9,29.96,SSE,151,0.0,3.0,80,0.00,,,0.03,Wunderground v.1.15,2013-08-12 16:31:00,
2013-08-12 12:36:00,73.8,66.9,29.96,SSW,211,2.0,3.0,79,0.00,,,0.03,Wunderground v.1.15,2013-08-12 16:36:00,
2013-08-12 12:41:00,74.2,67.6,29.96,West,275,1.0,2.0,80,0.00,,,0.03,Wunderground v.1.15,2013-08-12 16:41:00,
2013-08-12 12:46:00,73.9,66.6,29.97,West,272,0.0,2.0,78,0.00,,,0.03,Wunderground v.1.15,2013-08-12 16:46:00,
2013-08-12 12:51:00,74.0,68.2,29.96,West,267,0.0,2.0,82,0.00,,,0.03,Wunderground v.1.15,2013-08-12 16:51:00,
2013-08-12 12:56:00,74.7,68.8,29.96,West,265,1.0,2.0,82,0.00,,,0.03,Wunderground v.1.15,2013-08-12 16:56:00,
2013-08-12 13:01:00,74.8,67.8,29.96,West,274,0.0,2.0,79,0.00,,,0.03,Wunderground v.1.15,2013-08-12 17:01:00,
2013-08-12 13:06:00,73.9,68.1,29.96,West,281,1.0,3.0,82,0.00,,,0.03,Wunderground v.1.15,2013-08-12 17:06:00,
2013-08-12 13:11:00,73.6,67.8,29.95,West,281,2.0,3.0,82,0.00,,,0.03,Wunderground v.1.15,2013-08-12 17:11:00,
2013-08-12 13:16:00,73.7,67.9,29.96,West,281,2.0,3.0,82,0.00,,,0.03,Wunderground v.1.15,2013-08-12 17:16:00,
2013-08-12 13:21:00,73.3,68.2,29.95,West,281,0.0,3.0,84,0.00,,,0.03,Wunderground v.1.15,2013-08-12 17:21:00,
2013-08-12 13:26:00,73.1,68.3,29.95,West,281,1.0,3.0,85,0.00,,,0.03,Wunderground v.1.15,2013-08-12 17:26:00,
2013-08-12 13:31:00,73.1,68.0,29.95,West,281,0.0,2.0,84,0.00,,,0.03,Wunderground v.1.15,2013-08-12 17:31:00,
2013-08-12 13:36:00,73.2,67.0,29.95,West,281,2.0,3.0,81,0.00,,,0.03,Wunderground v.1.15,2013-08-12 17:36:00,
2013-08-12 13:41:00,73.0,67.2,29.94,West,281,3.0,3.0,82,0.00,,,0.03,Wunderground v.1.15,2013-08-12 17:41:00,
2013-08-12 13:46:00,74.1,69.0,29.94,West,281,2.0,3.0,84,0.00,,,0.03,Wunderground v.1.15,2013-08-12 17:46:00,
2013-08-12 13:51:00,74.8,68.2,29.94,West,281,3.0,3.0,80,0.00,,,0.03,Wunderground v.1.15,2013-08-12 17:51:00,
2013-08-12 13:56:00,74.3,67.7,29.94,West,281,1.0,3.0,80,0.00,,,0.03,Wunderground v.1.15,2013-08-12 17:56:00,
2013-08-12 14:01:00,74.3,68.1,29.94,West,281,1.0,2.0,81,0.00,,,0.03,Wunderground v.1.15,2013-08-12 18:01:00,
2013-08-12 14:06:00,74.5,67.9,29.94,West,281,2.0,3.0,80,0.00,,,0.03,Wunderground v.1.15,2013-08-12 18:06:00,
2013-08-12 14:11:00,75.1,68.5,29.93,West,281,2.0,3.0,80,0.00,,,0.03,Wunderground v.1.15,2013-08-12 18:11:00,
2013-08-12 14:16:00,74.9,68.7,29.93,West,281,1.0,3.0,81,0.00,,,0.03,Wunderground v.1.15,2013-08-12 18:16:00,
2013-08-12 14:21:00,75.9,68.9,29.93,West,281,1.0,3.0,79,0.00,,,0.03,Wunderground v.1.15,2013-08-12 18:21:00,
2013-08-12 14:26:00,76.5,69.1,29.93,West,281,2.0,3.0,78,0.00,,,0.03,Wunderground v.1.15,2013-08-12 18:26:00,
2013-08-12 14:31:00,76.7,69.3,29.92,West,281,2.0,3.0,78,0.00,,,0.03,Wunderground v.1.15,2013-08-12 18:31:00,
2013-08-12 14:36:00,76.7,68.9,29.92,West,281,2.0,3.0,77,0.00,,,0.03,Wunderground v.1.15,2013-08-12 18:36:00,
2013-08-12 14:41:00,75.9,67.8,29.92,West,281,2.0,3.0,76,0.00,,,0.03,Wunderground v.1.15,2013-08-12 18:41:00,
2013-08-12 14:46:00,76.3,68.9,29.92,West,281,2.0,3.0,78,0.00,,,0.03,Wunderground v.1.15,2013-08-12 18:46:00,
2013-08-12 14:51:00,77.6,69.8,29.92,WNW,285,2.0,3.0,77,0.00,,,0.03,Wunderground v.1.15,2013-08-12 18:51:00,
2013-08-12 14:56:00,78.1,68.7,29.92,WNW,285,2.0,3.0,73,0.00,,,0.03,Wunderground v.1.15,2013-08-12 18:56:00,
2013-08-12 15:01:00,77.9,68.1,29.91,WNW,290,1.0,3.0,72,0.00,,,0.03,Wunderground v.1.15,2013-08-12 19:01:00,
2013-08-12 15:02:00,77.8,68.0,29.91,WNW,290,2.0,3.0,72,0.00,,,0.03,Wunderground v.1.15,2013-08-12 19:02:00,
2013-08-12 15:07:00,77.4,67.7,29.91,WNW,290,2.0,3.0,72,0.00,,,0.03,Wunderground v.1.15,2013-08-12 19:07:00,
2013-08-12 15:12:00,77.4,68.1,29.91,WNW,290,0.0,3.0,73,0.00,,,0.03,Wunderground v.1.15,2013-08-12 19:12:00,
2013-08-12 15:17:00,77.6,67.9,29.91,WNW,290,1.0,3.0,72,0.00,,,0.03,Wunderground v.1.15,2013-08-12 19:17:00,
2013-08-12 15:22:00,77.6,68.7,29.91,WNW,290,2.0,3.0,74,0.00,,,0.03,Wunderground v.1.15,2013-08-12 19:22:00,
2013-08-12 15:27:00,77.6,68.3,29.90,WNW,290,2.0,3.0,73,0.00,,,0.03,Wunderground v.1.15,2013-08-12 19:27:00,
2013-08-12 15:32:00,77.5,68.6,29.90,WNW,290,2.0,3.0,74,0.00,,,0.03,Wunderground v.1.15,2013-08-12 19:32:00,
2013-08-12 15:37:00,77.2,68.7,29.90,WNW,290,1.0,3.0,75,0.00,,,0.03,Wunderground v.1.15,2013-08-12 19:37:00,
2013-08-12 15:42:00,76.6,68.1,29.90,WNW,290,1.0,3.0,75,0.00,,,0.03,Wunderground v.1.15,2013-08-12 19:42:00,
2013-08-12 15:47:00,76.9,69.1,29.90,WNW,290,2.0,3.0,77,0.00,,,0.03,Wunderground v.1.15,2013-08-12 19:47:00,
2013-08-12 15:52:00,75.8,68.4,29.90,WNW,290,1.0,3.0,78,0.00,,,0.03,Wunderground v.1.15,2013-08-12 19:52:00,
2013-08-12 15:57:00,75.4,69.9,29.90,WNW,290,3.0,3.0,83,0.00,,,0.03,Wunderground v.1.15,2013-08-12 19:57:00,
2013-08-12 16:02:00,75.0,69.8,29.90,WNW,291,4.0,5.0,84,0.00,,,0.03,Wunderground v.1.15,2013-08-12 20:02:00,
2013-08-12 16:07:00,74.8,69.6,29.90,WNW,290,1.0,5.0,84,0.00,,,0.03,Wunderground v.1.15,2013-08-12 20:07:00,
2013-08-12 16:12:00,75.1,70.3,29.90,WNW,290,2.0,4.0,85,0.00,,,0.03,Wunderground v.1.15,2013-08-12 20:12:00,
2013-08-12 16:17:00,74.8,68.9,29.89,NW,324,0.0,4.0,82,0.00,,,0.03,Wunderground v.1.15,2013-08-12 20:17:00,
2013-08-12 16:22:00,74.5,69.0,29.89,NW,324,1.0,2.0,83,0.00,,,0.03,Wunderground v.1.15,2013-08-12 20:22:00,
2013-08-12 16:27:00,73.7,68.2,29.89,NW,317,0.0,9.0,83,0.00,,,0.03,Wunderground v.1.15,2013-08-12 20:27:00,
2013-08-12 16:32:00,73.6,68.5,29.89,WNW,287,1.0,5.0,84,0.00,,,0.03,Wunderground v.1.15,2013-08-12 20:32:00,
2013-08-12 16:37:00,74.0,67.8,29.89,North,9,2.0,6.0,81,0.00,,,0.03,Wunderground v.1.15,2013-08-12 20:37:00,
2013-08-12 16:42:00,74.1,67.2,29.89,NW,322,0.0,7.0,79,0.00,,,0.03,Wunderground v.1.15,2013-08-12 20:42:00,
2013-08-12 16:47:00,74.0,66.3,29.89,NW,318,0.0,7.0,77,0.00,,,0.03,Wunderground v.1.15,2013-08-12 20:47:00,
2013-08-12 16:52:00,74.0,66.7,29.89,NW,321,1.0,4.0,78,0.00,,,0.03,Wunderground v.1.15,2013-08-12 20:52:00,
2013-08-12 16:57:00,74.3,67.0,29.89,NW,321,2.0,4.0,78,0.00,,,0.03,Wunderground v.1.15,2013-08-12 20:57:00,
2013-08-12 17:02:00,74.3,67.0,29.88,NW,322,0.0,3.0,78,0.00,,,0.03,Wunderground v.1.15,2013-08-12 21:02:00,
2013-08-12 17:07:00,74.3,67.4,29.88,NW,323,0.0,4.0,79,0.00,,,0.03,Wunderground v.1.15,2013-08-12 21:07:00,
2013-08-12 17:12:00,74.4,66.3,29.88,NW,324,0.0,3.0,76,0.00,,,0.03,Wunderground v.1.15,2013-08-12 21:12:00,
2013-08-12 17:17:00,74.7,67.0,29.88,NW,323,1.0,3.0,77,0.00,,,0.03,Wunderground v.1.15,2013-08-12 21:17:00,
2013-08-12 17:22:00,74.8,66.3,29.87,NW,324,0.0,2.0,75,0.00,,,0.03,Wunderground v.1.15,2013-08-12 21:22:00,
2013-08-12 17:27:00,74.2,66.9,29.87,NW,318,0.0,5.0,78,0.00,,,0.03,Wunderground v.1.15,2013-08-12 21:27:00,
2013-08-12 17:32:00,73.6,67.0,29.87,NW,325,1.0,5.0,80,0.00,,,0.03,Wunderground v.1.15,2013-08-12 21:32:00,
2013-08-12 17:37:00,73.7,67.1,29.87,NNW,332,2.0,5.0,80,0.00,,,0.03,Wunderground v.1.15,2013-08-12 21:37:00,
2013-08-12 17:42:00,73.4,67.2,29.87,NNW,327,1.0,6.0,81,0.00,,,0.03,Wunderground v.1.15,2013-08-12 21:42:00,
2013-08-12 17:47:00,73.3,67.1,29.87,NNW,336,1.0,6.0,81,0.00,,,0.03,Wunderground v.1.15,2013-08-12 21:47:00,
2013-08-12 17:52:00,73.3,66.4,29.87,NE,40,1.0,5.0,79,0.00,,,0.03,Wunderground v.1.15,2013-08-12 21:52:00,
2013-08-12 17:57:00,73.2,66.3,29.87,WNW,300,0.0,5.0,79,0.00,,,0.03,Wunderground v.1.15,2013-08-12 21:57:00,
2013-08-12 18:02:00,73.3,66.8,29.87,NNW,329,0.0,3.0,80,0.00,,,0.03,Wunderground v.1.15,2013-08-12 22:02:00,
2013-08-12 18:07:00,73.3,66.0,29.87,NW,316,0.0,4.0,78,0.00,,,0.03,Wunderground v.1.15,2013-08-12 22:07:00,
2013-08-12 18:12:00,73.2,66.3,29.87,NNW,334,0.0,3.0,79,0.00,,,0.03,Wunderground v.1.15,2013-08-12 22:12:00,
2013-08-12 18:17:00,73.2,66.3,29.86,NNW,344,1.0,3.0,79,0.00,,,0.03,Wunderground v.1.15,2013-08-12 22:17:00,
2013-08-12 18:22:00,73.0,66.5,29.86,NNW,342,0.0,4.0,80,0.00,,,0.03,Wunderground v.1.15,2013-08-12 22:22:00,
2013-08-12 18:27:00,73.3,66.8,29.86,NNE,12,0.0,4.0,80,0.00,,,0.03,Wunderground v.1.15,2013-08-12 22:27:00,
2013-08-12 18:32:00,73.0,66.8,29.86,NNE,12,0.0,1.0,81,0.00,,,0.03,Wunderground v.1.15,2013-08-12 22:32:00,
2013-08-12 18:38:00,72.7,66.5,29.86,NNE,12,0.0,3.0,81,0.00,,,0.03,Wunderground v.1.15,2013-08-12 22:38:00,
2013-08-12 18:43:00,72.6,66.4,29.87,North,11,1.0,3.0,81,0.00,,,0.03,Wunderground v.1.15,2013-08-12 22:43:00,
2013-08-12 18:48:00,72.3,66.5,29.86,NNE,18,1.0,3.0,82,0.00,,,0.03,Wunderground v.1.15,2013-08-12 22:48:00,
2013-08-12 18:53:00,72.0,66.2,29.86,WNW,295,1.0,6.0,82,0.00,,,0.03,Wunderground v.1.15,2013-08-12 22:53:00,
2013-08-12 18:58:00,71.7,67.3,29.88,WNW,284,5.0,7.0,86,0.00,,,0.03,Wunderground v.1.15,2013-08-12 22:58:00,
2013-08-12 19:03:00,70.7,67.9,29.89,WNW,289,9.0,15.0,91,0.70,,,0.07,Wunderground v.1.15,2013-08-12 23:03:00,
2013-08-12 19:08:00,69.6,68.1,29.89,WNW,292,5.0,15.0,95,1.88,,,0.21,Wunderground v.1.15,2013-08-12 23:08:00,
2013-08-12 19:13:00,69.1,67.9,29.88,NW,315,0.0,11.0,96,0.39,,,0.33,Wunderground v.1.15,2013-08-12 23:13:00,
2013-08-12 19:18:00,68.7,67.5,29.87,NE,50,0.0,11.0,96,0.11,,,0.33,Wunderground v.1.15,2013-08-12 23:18:00,
2013-08-12 19:23:00,68.8,67.9,29.88,ESE,112,0.0,2.0,97,0.06,,,0.33,Wunderground v.1.15,2013-08-12 23:23:00,
2013-08-12 19:28:00,68.9,68.0,29.87,ESE,111,0.0,2.0,97,0.04,,,0.33,Wunderground v.1.15,2013-08-12 23:28:00,
2013-08-12 19:33:00,69.0,68.1,29.87,East,97,0.0,2.0,97,0.00,,,0.33,Wunderground v.1.15,2013-08-12 23:33:00,
2013-08-12 19:38:00,69.3,68.7,29.87,NW,326,0.0,3.0,98,0.00,,,0.33,Wunderground v.1.15,2013-08-12 23:38:00,
2013-08-12 19:43:00,69.2,68.6,29.87,West,278,2.0,3.0,98,0.00,,,0.33,Wunderground v.1.15,2013-08-12 23:43:00,
2013-08-12 19:48:00,68.8,67.9,29.87,WNW,289,0.0,4.0,97,0.00,,,0.33,Wunderground v.1.15,2013-08-12 23:48:00,
2013-08-12 19:53:00,68.5,67.6,29.87,WNW,300,3.0,4.0,97,0.00,,,0.33,Wunderground v.1.15,2013-08-12 23:53:00,
2013-08-12 19:58:00,68.7,68.1,29.87,WNW,300,0.0,4.0,98,0.00,,,0.33,Wunderground v.1.15,2013-08-12 23:58:00,
2013-08-12 20:03:00,68.7,68.1,29.87,WNW,300,0.0,3.0,98,0.00,,,0.33,Wunderground v.1.15,2013-08-13 00:03:00,
2013-08-12 20:08:00,69.3,69.0,29.87,WNW,300,0.0,3.0,99,0.00,,,0.33,Wunderground v.1.15,2013-08-13 00:08:00,
2013-08-12 20:13:00,69.3,68.7,29.87,WNW,299,0.0,1.0,98,0.00,,,0.33,Wunderground v.1.15,2013-08-13 00:13:00,
2013-08-12 20:18:00,69.5,68.9,29.87,WNW,300,0.0,1.0,98,0.00,,,0.33,Wunderground v.1.15,2013-08-13 00:18:00,
2013-08-12 20:23:00,69.2,68.3,29.87,WNW,299,0.0,0.0,97,0.00,,,0.33,Wunderground v.1.15,2013-08-13 00:23:00,
2013-08-12 20:28:00,69.0,68.1,29.87,WNW,299,0.0,0.0,97,0.00,,,0.33,Wunderground v.1.15,2013-08-13 00:28:00,
2013-08-12 20:33:00,69.0,68.4,29.87,WNW,300,0.0,1.0,98,0.00,,,0.33,Wunderground v.1.15,2013-08-13 00:33:00,
2013-08-12 20:38:00,68.8,68.2,29.87,WNW,300,2.0,2.0,98,0.00,,,0.33,Wunderground v.1.15,2013-08-13 00:38:00,
2013-08-12 20:43:00,68.4,67.8,29.87,WNW,300,0.0,3.0,98,0.00,,,0.33,Wunderground v.1.15,2013-08-13 00:43:00,
2013-08-12 20:48:00,68.1,67.5,29.87,WNW,300,0.0,4.0,98,0.00,,,0.33,Wunderground v.1.15,2013-08-13 00:48:00,
2013-08-12 20:53:00,68.3,67.7,29.87,WNW,300,3.0,4.0,98,0.00,,,0.33,Wunderground v.1.15,2013-08-13 00:53:00,
2013-08-12 20:58:00,68.4,68.1,29.87,WNW,299,3.0,5.0,99,0.00,,,0.33,Wunderground v.1.15,2013-08-13 00:58:00,
2013-08-12 21:03:00,68.3,67.7,29.88,WNW,300,2.0,4.0,98,0.00,,,0.33,Wunderground v.1.15,2013-08-13 01:03:00,
2013-08-12 21:08:00,68.1,67.8,29.88,WNW,300,0.0,4.0,99,0.00,,,0.33,Wunderground v.1.15,2013-08-13 01:08:00,
2013-08-12 21:13:00,68.0,67.7,29.87,WNW,300,0.0,2.0,99,0.00,,,0.33,Wunderground v.1.15,2013-08-13 01:13:00,
2013-08-12 21:18:00,68.1,67.8,29.87,WNW,300,0.0,2.0,99,0.00,,,0.33,Wunderground v.1.15,2013-08-13 01:18:00,
2013-08-12 21:23:00,68.2,67.9,29.88,WNW,300,1.0,2.0,99,0.00,,,0.33,Wunderground v.1.15,2013-08-13 01:23:00,
2013-08-12 21:28:00,68.3,68.0,29.88,WNW,300,0.0,4.0,99,0.00,,,0.33,Wunderground v.1.15,2013-08-13 01:28:00,
2013-08-12 21:33:00,68.3,68.0,29.88,NW,309,0.0,3.0,99,0.00,,,0.33,Wunderground v.1.15,2013-08-13 01:33:00,
2013-08-12 21:38:00,68.4,68.1,29.88,NNW,337,0.0,1.0,99,0.00,,,0.33,Wunderground v.1.15,2013-08-13 01:38:00,
2013-08-12 21:43:00,68.4,68.1,29.88,NE,51,0.0,5.0,99,0.00,,,0.33,Wunderground v.1.15,2013-08-13 01:43:00,
2013-08-12 21:48:00,68.4,68.1,29.88,NNW,338,1.0,1.0,99,0.00,,,0.33,Wunderground v.1.15,2013-08-13 01:48:00,
2013-08-12 21:53:00,68.2,67.9,29.89,NNW,348,0.0,2.0,99,0.00,,,0.33,Wunderground v.1.15,2013-08-13 01:53:00,
2013-08-12 21:58:00,68.2,67.9,29.89,WNW,294,0.0,1.0,99,0.00,,,0.33,Wunderground v.1.15,2013-08-13 01:58:00,
2013-08-12 22:03:00,68.1,67.8,29.89,North,9,0.0,5.0,99,0.00,,,0.33,Wunderground v.1.15,2013-08-13 02:03:00,
2013-08-12 22:08:00,68.0,67.7,29.90,NNW,340,0.0,1.0,99,0.00,,,0.33,Wunderground v.1.15,2013-08-13 02:08:00,
2013-08-12 22:13:00,68.0,67.7,29.90,NNW,342,3.0,4.0,99,0.00,,,0.33,Wunderground v.1.15,2013-08-13 02:13:00,
2013-08-12 22:18:00,68.0,67.7,29.90,ENE,78,1.0,1.0,99,0.00,,,0.33,Wunderground v.1.15,2013-08-13 02:18:00,
2013-08-12 22:23:00,68.0,67.7,29.90,NNE,28,0.0,4.0,99,0.00,,,0.33,Wunderground v.1.15,2013-08-13 02:23:00,
2013-08-12 22:28:00,67.9,67.6,29.89,NNE,27,0.0,0.0,99,0.00,,,0.33,Wunderground v.1.15,2013-08-13 02:28:00,
2013-08-12 22:33:00,67.7,67.4,29.90,NNE,27,0.0,1.0,99,0.00,,,0.33,Wunderground v.1.15,2013-08-13 02:33:00,
2013-08-12 22:38:00,67.6,67.3,29.89,NNE,27,0.0,0.0,99,0.00,,,0.33,Wunderground v.1.15,2013-08-13 02:38:00,
2013-08-12 22:43:00,67.6,67.3,29.90,NNE,27,0.0,0.0,99,0.00,,,0.33,Wunderground v.1.15,2013-08-13 02:43:00,
2013-08-12 22:48:00,67.5,67.2,29.90,NNE,27,0.0,0.0,99,0.00,,,0.33,Wunderground v.1.15,2013-08-13 02:48:00,
2013-08-12 22:53:00,67.5,67.2,29.90,NNE,27,0.0,0.0,99,0.00,,,0.33,Wunderground v.1.15,2013-08-13 02:53:00,
2013-08-12 22:58:00,67.2,66.6,29.90,NNE,27,0.0,0.0,98,0.00,,,0.33,Wunderground v.1.15,2013-08-13 02:58:00,
2013-08-12 23:03:00,67.0,66.4,29.90,NNE,27,0.0,0.0,98,0.00,,,0.33,Wunderground v.1.15,2013-08-13 03:03:00,
2013-08-12 23:08:00,67.1,66.8,29.90,NNE,27,0.0,0.0,99,0.00,,,0.33,Wunderground v.1.15,2013-08-13 03:08:00,
2013-08-12 23:13:00,67.3,67.0,29.90,NNE,27,0.0,1.0,99,0.00,,,0.33,Wunderground v.1.15,2013-08-13 03:13:00,
2013-08-12 23:18:00,67.2,66.9,29.90,NNE,27,0.0,0.0,99,0.00,,,0.33,Wunderground v.1.15,2013-08-13 03:18:00,
2013-08-12 23:23:00,67.1,66.8,29.90,NNE,27,0.0,0.0,99,0.00,,,0.33,Wunderground v.1.15,2013-08-13 03:23:00,
2013-08-12 23:28:00,67.1,66.8,29.90,NNE,27,0.0,0.0,99,0.00,,,0.33,Wunderground v.1.15,2013-08-13 03:28:00,
2013-08-12 23:33:00,66.9,66.6,29.90,NW,313,4.0,4.0,99,0.00,,,0.33,Wunderground v.1.15,2013-08-13 03:33:00,
2013-08-12 23:38:00,67.2,66.9,29.90,WNW,298,1.0,2.0,99,0.00,,,0.33,Wunderground v.1.15,2013-08-13 03:38:00,
2013-08-12 23:43:00,67.5,67.2,29.90,WNW,298,2.0,5.0,99,0.00,,,0.33,Wunderground v.1.15,2013-08-13 03:43:00,
2013-08-12 23:45:00,67.6,67.3,29.89,WNW,298,0.0,5.0,99,0.00,,,0.33,Wunderground v.1.15,2013-08-13 03:45:00,
2013-08-12 23:52:00,67.3,67.0,29.90,WNW,298,0.0,4.0,99,0.00,,,0.33,Wunderground v.1.15,2013-08-13 03:52:00,
2013-08-12 23:57:00,67.1,66.8,29.90,WNW,298,0.0,4.0,99,0.00,,,0.33,Wunderground v.1.15,2013-08-13 03:57:00,